TimeEDT,TemperatureF,Dew PointF,Humidity,Sea Level PressureIn,VisibilityMPH,Wind Direction,Wind SpeedMPH,Gust SpeedMPH,PrecipitationIn,Events,Conditions,WindDirDegrees,DateUTC
12:14 AM,55.9,53.6,92,29.96,10.0,SE,3.5,-,N/A,,Clear,130,2013-05-30 04:14:00
12:35 AM,55.4,53.2,92,29.96,10.0,Calm,Calm,-,N/A,,Clear,0,2013-05-30 04:35:00
12:55 AM,54.9,52.9,93,29.96,10.0,SE,3.5,-,N/A,,Clear,130,2013-05-30 04:55:00
1:15 AM,54.1,52.3,94,29.96,10.0,SE,3.5,-,N/A,,Clear,140,2013-05-30 05:15:00
1:35 AM,53.8,52.2,94,29.97,10.0,SE,3.5,-,N/A,,Clear,140,2013-05-30 05:35:00
1:55 AM,53.2,51.8,95,29.98,4.0,SSE,3.5,-,N/A,,Scattered Clouds,160,2013-05-30 05:55:00
2:15 AM,53.1,51.8,95,29.98,0.8,SSE,4.6,-,N/A,,Overcast,160,2013-05-30 06:15:00
2:35 AM,52.9,51.8,96,29.98,0.5,SE,3.5,-,N/A,Fog,Fog,140,2013-05-30 06:35:00
2:54 AM,52.9,51.8,96,29.98,0.5,SSE,4.6,-,N/A,Fog,Fog,150,2013-05-30 06:54:00
3:15 AM,52.9,51.8,96,29.98,0.8,SE,3.5,-,N/A,,Overcast,130,2013-05-30 07:15:00
3:35 AM,52.7,51.8,97,29.97,1.8,SE,4.6,-,N/A,,Overcast,130,2013-05-30 07:35:00
3:55 AM,52.9,51.8,96,29.97,1.2,SSE,4.6,-,N/A,,Overcast,150,2013-05-30 07:55:00
4:15 AM,52.9,52.0,97,29.97,4.0,SE,5.8,-,N/A,,Overcast,140,2013-05-30 08:15:00
4:35 AM,53.2,52.2,96,29.96,3.0,SSE,6.9,-,N/A,,Overcast,150,2013-05-30 08:35:00
4:55 AM,53.4,52.3,96,29.96,3.0,SE,5.8,-,N/A,,Overcast,140,2013-05-30 08:55:00
5:15 AM,53.6,52.7,97,29.96,2.5,SE,5.8,-,N/A,,Overcast,140,2013-05-30 09:15:00
5:35 AM,53.6,52.7,97,29.96,2.0,SSE,3.5,-,N/A,,Overcast,150,2013-05-30 09:35:00
5:55 AM,53.8,52.9,97,29.96,2.5,SSE,4.6,-,N/A,,Overcast,150,2013-05-30 09:55:00
6:15 AM,54.1,53.2,97,29.97,2.5,Calm,Calm,-,N/A,,Overcast,0,2013-05-30 10:15:00
6:35 AM,54.5,53.6,97,29.97,2.5,Calm,Calm,-,N/A,,Mist,0,2013-05-30 10:35:00
6:54 AM,54.9,54.0,97,29.98,2.5,Calm,Calm,-,N/A,,Mist,0,2013-05-30 10:54:00
7:15 AM,53.8,52.7,96,29.98,2.5,Calm,Calm,-,N/A,,Scattered Clouds,0,2013-05-30 11:15:00
7:34 AM,52.5,51.4,96,29.98,5.0,Calm,Calm,-,N/A,,Scattered Clouds,0,2013-05-30 11:34:00
7:55 AM,54.0,52.9,96,29.98,7.0,Calm,Calm,-,N/A,,Clear,0,2013-05-30 11:55:00
8:15 AM,60.3,59.0,96,29.97,10.0,Calm,Calm,-,N/A,,Clear,0,2013-05-30 12:15:00
8:35 AM,63.7,61.7,93,29.97,10.0,SSE,3.5,-,N/A,,Clear,160,2013-05-30 12:35:00
8:55 AM,67.8,63.5,86,29.97,10.0,South,5.8,-,N/A,,Clear,180,2013-05-30 12:55:00
9:15 AM,70.5,63.7,79,29.97,10.0,South,6.9,-,N/A,,Clear,180,2013-05-30 13:15:00
9:35 AM,73.0,64.4,74,29.97,10.0,SSW,8.1,-,N/A,,Clear,200,2013-05-30 13:35:00
9:55 AM,74.7,64.4,70,29.97,10.0,SSW,9.2,-,N/A,,Clear,200,2013-05-30 13:55:00
10:15 AM,76.8,65.7,68,29.96,10.0,South,8.1,-,N/A,,Clear,180,2013-05-30 14:15:00
10:35 AM,77.9,65.5,65,29.96,10.0,South,8.1,-,N/A,,Clear,180,2013-05-30 14:35:00
10:55 AM,80.1,66.0,62,29.95,10.0,South,6.9,-,N/A,,Clear,190,2013-05-30 14:55:00
11:14 AM,81.5,66.6,60,29.95,10.0,SSW,8.1,-,N/A,,Clear,200,2013-05-30 15:14:00
11:35 AM,83.5,65.1,54,29.95,10.0,SW,9.2,-,N/A,,Scattered Clouds,220,2013-05-30 15:35:00
11:54 AM,84.2,64.6,52,29.95,10.0,SW,9.2,-,N/A,,Mostly Cloudy,230,2013-05-30 15:54:00
12:15 PM,83.1,63.7,52,29.96,10.0,WSW,11.5,-,N/A,,Scattered Clouds,240,2013-05-30 16:15:00
12:35 PM,83.7,62.4,49,29.95,10.0,SSW,12.7,17.3,N/A,,Scattered Clouds,200,2013-05-30 16:35:00
12:54 PM,85.5,62.2,46,29.95,10.0,SW,11.5,17.3,N/A,,Scattered Clouds,230,2013-05-30 16:54:00
1:15 PM,86.2,61.9,44,29.94,10.0,SSW,11.5,-,N/A,,Mostly Cloudy,200,2013-05-30 17:15:00
1:35 PM,86.9,62.4,44,29.93,10.0,SW,10.4,-,N/A,,Scattered Clouds,220,2013-05-30 17:35:00
1:55 PM,86.7,60.1,41,29.93,10.0,SSW,11.5,19.6,N/A,,Scattered Clouds,210,2013-05-30 17:55:00
2:15 PM,87.8,60.8,40,29.92,10.0,SSW,6.9,-,N/A,,Scattered Clouds,210,2013-05-30 18:15:00
2:35 PM,88.3,59.9,38,29.91,10.0,South,9.2,16.1,N/A,,Scattered Clouds,190,2013-05-30 18:35:00
2:55 PM,88.2,59.5,38,29.90,10.0,SSW,9.2,17.3,N/A,,Scattered Clouds,210,2013-05-30 18:55:00
3:15 PM,87.8,59.0,38,29.90,10.0,SW,6.9,-,N/A,,Mostly Cloudy,220,2013-05-30 19:15:00
3:35 PM,76.1,59.2,56,29.90,10.0,North,8.1,-,N/A,,Mostly Cloudy,10,2013-05-30 19:35:00
3:55 PM,73.9,58.8,59,29.90,10.0,North,5.8,-,N/A,,Mostly Cloudy,10,2013-05-30 19:55:00
4:15 PM,75.6,59.5,57,29.90,10.0,North,3.5,-,N/A,,Mostly Cloudy,10,2013-05-30 20:15:00
4:35 PM,77.5,60.3,55,29.89,10.0,North,4.6,-,N/A,,Scattered Clouds,10,2013-05-30 20:35:00
4:55 PM,71.2,58.5,64,29.90,7.0,WSW,3.5,-,N/A,,Mostly Cloudy,240,2013-05-30 20:55:00
5:15 PM,70.7,63.0,76,29.92,2.0,WSW,13.8,32.2,N/A,Rain,Heavy Rain,250,2013-05-30 21:15:00
5:35 PM,68.9,64.2,85,29.91,7.0,SSW,5.8,-,N/A,Rain,Light Rain,210,2013-05-30 21:35:00
5:55 PM,72.0,67.1,85,29.91,10.0,SSW,6.9,-,N/A,,Scattered Clouds,210,2013-05-30 21:55:00
6:14 PM,74.1,69.1,84,29.90,7.0,South,5.8,-,N/A,,Scattered Clouds,190,2013-05-30 22:14:00
6:35 PM,77.5,70.0,77,29.89,7.0,South,9.2,-,N/A,,Scattered Clouds,170,2013-05-30 22:35:00
6:55 PM,78.6,67.3,68,29.89,10.0,South,11.5,-,N/A,,Clear,180,2013-05-30 22:55:00
7:15 PM,79.0,67.5,68,29.90,10.0,South,11.5,-,N/A,,Clear,180,2013-05-30 23:15:00
7:35 PM,77.9,67.5,70,29.90,10.0,South,9.2,-,N/A,,Clear,180,2013-05-30 23:35:00
7:55 PM,77.0,67.3,72,29.90,10.0,South,9.2,-,N/A,,Clear,180,2013-05-30 23:55:00
8:15 PM,77.2,67.5,72,29.90,10.0,South,9.2,-,N/A,,Light Drizzle,180,2013-05-31 00:15:00
8:35 PM,77.0,67.5,72,29.90,10.0,South,6.9,-,N/A,,Scattered Clouds,170,2013-05-31 00:35:00
8:54 PM,75.9,66.7,73,29.90,10.0,South,9.2,-,N/A,,Clear,190,2013-05-31 00:54:00
9:15 PM,74.5,66.2,75,29.91,10.0,South,11.5,-,N/A,,Clear,180,2013-05-31 01:15:00
9:35 PM,73.8,66.2,77,29.91,10.0,South,11.5,16.1,N/A,,Clear,180,2013-05-31 01:35:00
9:54 PM,73.4,65.8,77,29.90,10.0,South,9.2,-,N/A,,Clear,190,2013-05-31 01:54:00
10:15 PM,72.5,65.8,80,29.91,10.0,South,9.2,-,N/A,,Clear,190,2013-05-31 02:15:00
10:34 PM,72.1,65.8,80,29.92,10.0,South,10.4,-,N/A,,Clear,190,2013-05-31 02:34:00
10:55 PM,72.7,66.2,80,29.91,10.0,South,11.5,16.1,N/A,,Clear,180,2013-05-31 02:55:00
11:15 PM,72.7,66.2,80,29.91,10.0,South,10.4,-,N/A,,Clear,180,2013-05-31 03:15:00
11:35 PM,72.0,66.2,82,29.90,10.0,South,10.4,-,N/A,Rain,Light Rain,170,2013-05-31 03:35:00
11:55 PM,71.6,66.6,84,29.89,7.0,SSW,9.2,-,N/A,Rain,Rain,210,2013-05-31 03:55:00